sat.trackr.live / text

‹ back to catalog

STARLINK-37525

NORAD 69462 · 2026-127V

PAYLOAD ACTIVE UNKNOWN

§ Identity

Operator
Country
US
Launch date
2026-06-08
Launch site
AFETR
Launch vehicle
Mass (kg)
RCS (m²)

Purposes: comms

External: N2YO · Heavens-Above · Gunter

§ Orbital elements

Epoch: 2026-09-19T05:20:26.534112Z

Period
93.85 min
Inclination
53.1600°
Eccentricity
0.0001103
Mean motion
15.34415302 rev/d
Perigee alt
461.9 km
Apogee alt
463.4 km
Semi-major
6,840.8 km
B*
7.4033e-4
RAAN
171.8437°
Arg perigee
101.0050°
Mean anomaly
259.1077°
Rev number
1,599

§ Raw data

STARLINK-375251 69462U 26127V   26262.22252933  .00024732  00000+0  74033-3 0  99982 69462  53.1600 171.8437 0001103 101.0050 259.1077 15.34415302 15990

JSON: /api/v1/satellites/69462 · /tle

For live sub-satellite position, see the globe view (requires WebGL).

§ Visibility from observer

Set your observer location to see the next 7 days of passes ≥ 10°. The values pass through the URL so the page stays shareable.

No JS? Fill the form by hand. The geolocation button needs JavaScript.